Regional Weather Roundup
Issued by NWS

Home | Current Version | Previous Version | Graphics & Text | Print | Product List | Glossary On
Versions: 1 2 3 4 5 6 7 8 9 10 11 12 13 14 15 16 17 18 19 20 21 22 23 24 25 26 27
000
ASUS45 KBOU 060207
RWRCO

WEATHER ROUNDUP FOR COLORADO
NATIONAL WEATHER SERVICE DENVER/BOULDER CO
800 PM MDT THU MAY 05 2016

NOTE: "FAIR" INDICATES FEW OR NO CLOUDS BELOW 12000 FEET WITH NO
SIGNIFICANT WEATHER AND/OR OBSTRUCTIONS TO VISIBILITY.

COZ001>005-013-030-031-060300-
...NORTHWEST COLORADO...

CITY           SKY/WX    TMP DP  RH WIND       PRES   REMARKS
CRAIG          FAIR      60  39  45 SE6       29.99S
HAYDEN         FAIR      68  28  22 NE6       30.02S
MEEKER         FAIR      64  40  41 CALM      29.99S
MOUNT WERNER   NOT AVBL
STEAMBOAT SPGS FAIR      67  26  20 N3        30.04S
WALDEN         FAIR      61  21  21 CALM      30.15F
$$

COZ006>008-011-060300-
...WEST CENTRAL VALLEYS...

CITY           SKY/WX    TMP DP  RH WIND       PRES   REMARKS
GRAND JUNCTION FAIR      71  36  27 E8        29.84F
MONTROSE       FAIR      74  27  17 SE8       29.95R
EAGLE          FAIR      72  25  17 SE8       30.02R
RIFLE          FAIR      70  35  27 SW7       29.92S
DELTA          NOT AVBL
NUCLA          NOT AVBL
$$

COZ017>023-064>068-060300-
...SOUTHWEST COLORADO...

CITY           SKY/WX    TMP DP  RH WIND       PRES   REMARKS
DURANGO        FAIR      67  23  19 SE9       30.03S
CORTEZ         MOCLDY    74  25  16 VRB6G20   29.96R
PAGOSA SPRINGS FAIR      66  26  22 S3        30.13S
TELLURIDE      FAIR      61  19  20 SE7       30.20S
WOLF CREEK PAS FAIR      41  21  45 S6        30.43S
$$

COZ009-010-012-014-032>034-037-058>063-060300-
...CENTRAL COLORADO...

CITY           SKY/WX    TMP DP  RH WIND       PRES   REMARKS
ASPEN          FAIR      65  22  19 SE7       30.09R
BUENA VISTA    FAIR      59  23  24 E5        30.14S
COPPER MTN     NOT AVBL
BERTHOUD PASS  MOCLDY    36  28  75 E17G28    30.44S
COTTONWOOD PAS MOCLDY    59  10  14 SE16      30.27R
GUNNISON       MOCLDY    63  25  23 SE9       30.12R
KREMMLING      FAIR      61  25  25 E7        30.09R
LEADVILLE      FAIR      54  18  24 SE6       30.25R
SALIDA         FAIR      68  14  12 S3        30.19R
SUNLIGHT       FAIR      50  19  29 CALM      30.33S
WILKERSON PASS FAIR      45  25  45 SW9       30.39S
$$

COZ069>075-060300-
...SAN LUIS VALLEY/SANGRE DE CRISTO MOUNTAINS...

CITY           SKY/WX    TMP DP  RH WIND       PRES   REMARKS
ALAMOSA        FAIR      61  33  35 S7        30.12R
LA VETA PASS   CLOUDY    46  25  42 NE8       30.33R
SAGUACHE       FAIR      61  30  31 S5        30.15R
$$

COZ035-036-038>040-060300-
...NORTHERN COLORADO FRONT RANGE...

CITY           SKY/WX    TMP DP  RH WIND       PRES   REMARKS
DENVER INTL AP MOCLDY    64  42  44 SE13      30.01R
DMNS CITY PARK   N/A     73  32  22 SE5G16    29.99S
AURORA         FAIR      65  39  38 SE16      30.03R
FRONT RANGE AP MOCLDY    64  43  45 SE10      30.02S
ERIE MUNI ARPT FAIR      68  37  31 E8        29.98S
BOULDER MUN AP FAIR      70  37  30 N3        29.99S
CENTENNIAL     MOCLDY    68  34  28 SE17G24   30.03S
BROOMFIELD     MOCLDY    72  34  25 E12       30.02S
FORT COLLINS   FAIR      68  39  34 E8        29.98R
LONGMONT       FAIR      72  37  28 CALM      30.00S
$$

COZ041-046-047-076>085-087-088-060300-
...PIKES PEAK/PALMER DIVIDE AND SOUTHERN FOOTHILLS...

CITY           SKY/WX    TMP DP  RH WIND       PRES   REMARKS
COLO. SPRINGS  MOCLDY    69  28  21 SE12      30.08R
A. F. ACADEMY  FAIR      66  28  24 SE14      30.08R
SCHRIEVER AFB  NOT AVBL
ELLICOTT       FAIR     N/A N/A N/A SE13      30.08R
FALCON         NOT AVBL
FORT CARSON    FAIR      65  34  31 SE9       30.05R
LIMON          FAIR      60  39  45 SE9       30.06R
MONUMENT HILL  FAIR      55  34  44 SE9       30.14R
TRINIDAD       FAIR      66  30  26 S7        30.03S
$$

COZ042>045-048>051-090-091-060300-
...NORTHEAST COLORADO...

CITY           SKY/WX    TMP DP  RH WIND       PRES   REMARKS
GREELEY ARPT   FAIR      70  43  37 E7        29.98R
AKRON          FAIR      67  41  38 S16       30.00R
BURLINGTON     FAIR      64  42  44 SE10      30.03R
WRAY           NOT AVBL
STERLING       FAIR      70  45  40 SE8       29.95R
HOLYOKE        NOT AVBL
FORT MORGAN    FAIR      69  37  30 SE9       29.98S
$$

COZ086-089-092>099-060300-
...SOUTHEAST COLORADO...

CITY           SKY/WX    TMP DP  RH WIND       PRES   REMARKS
PUEBLO         FAIR      75  35  23 E10       29.97R
LA JUNTA       FAIR      74  43  32 E13       29.97R
LAMAR          FAIR      71  46  40 SE12      29.96R
SPRINGFIELD      N/A     62  43  49 SE10      30.01R
$$




USA.gov is the U.S. government's official web portal to all federal, state and local government web resources and services.